Wind_Speed
66 66 65 64 62 61 60 60 59 58 57 57 55 53 53 53 53 53 53 54 55 57 58 60 60 60 59 60 60 61 61 62 62 63 64 64 64 65
63 63 63 62 61 60 59 58 58 58 58 57 56 56 55 56 56 56 57 57 59 59 60 62 62 63 63 63 63 64 64 64 64 65 65 66 67 68
57 58 59 58 58 58 58 58 58 58 58 57 57 57 57 58 58 59 60 60 62 63 63 64 64 64 65 65 65 64 64 64 65 65 66 67 69 71
49 50 51 53 53 54 55 55 56 57 57 57 58 59 59 60 61 62 61 62 63 64 65 65 66 66 66 65 64 64 65 65 66 67 69 70 71 73
42 43 44 46 48 49 51 51 52 53 55 55 56 58 59 60 60 61 61 62 64 65 66 66 66 65 64 64 64 65 65 66 68 69 70 72 73 74
34 36 37 39 40 42 44 46 46 48 50 51 53 55 56 58 59 61 62 63 63 64 63 63 64 64 64 64 65 66 67 67 68 69 70 72 72 73
28 29 31 32 34 36 38 40 41 43 46 48 50 52 54 55 57 58 59 59 60 61 62 63 63 64 65 66 67 67 67 68 69 69 69 69 69 69
23 23 24 25 27 29 32 34 36 40 43 45 47 49 51 52 53 55 56 58 60 61 62 63 63 64 65 66 66 66 67 66 66 65 65 65 64 63
19 19 20 21 24 26 28 30 33 36 38 41 43 46 48 49 52 54 56 58 59 60 60 60 62 62 63 64 64 63 62 61 61 60 58 56 55 54
17 17 16 18 19 21 24 26 30 33 36 39 42 45 48 50 52 54 56 57 59 60 59 59 60 60 60 60 59 59 58 57 55 52 49 47 47 47
16 16 17 18 20 21 24 27 30 33 36 39 42 45 48 51 53 55 56 57 58 59 59 58 57 55 54 55 55 54 52 49 47 45 43 42 41 41
18 18 19 20 22 24 26 29 32 35 38 41 44 48 50 52 54 55 56 57 58 58 58 55 53 51 48 48 48 47 46 45 44 43 41 40 39 38
21 22 23 24 26 28 30 33 36 38 41 44 47 50 52 53 54 55 56 56 56 55 54 51 48 46 43 40 41 42 42 41 41 41 40 38 38 37
24 25 26 28 30 32 34 37 39 42 45 48 50 52 53 54 54 55 54 53 52 51 49 46 42 41 39 37 36 38 39 39 38 38 37 37 37 37
27 28 30 31 34 36 38 40 43 45 48 50 52 54 54 54 54 53 52 49 48 46 45 42 40 39 37 36 34 35 36 36 37 36 36 36 36 37
30 32 33 35 37 39 41 44 46 48 50 52 54 54 54 53 51 50 48 46 44 44 43 41 39 37 36 35 34 35 35 35 35 35 34 34 35 36
33 35 36 38 40 42 44 46 49 51 52 53 53 52 51 50 49 47 45 44 42 41 41 40 38 37 36 35 35 35 35 35 35 33 32 31 33 35
36 37 39 41 43 45 47 49 50 52 53 52 51 50 49 47 47 46 44 42 40 39 39 38 38 37 36 35 37 37 36 36 34 34 33 31 31 34
39 40 41 43 45 47 49 50 52 52 52 51 50 49 47 47 45 44 43 41 39 38 38 38 38 38 36 34 34 38 38 36 35 33 33 32 30 30
41 42 44 45 47 49 51 52 52 52 52 51 49 48 47 46 44 43 41 40 39 38 38 39 39 39 38 35 33 34 39 38 35 33 32 31 30 30
42 44 46 47 49 51 53 53 53 53 52 50 49 48 46 44 43 42 41 40 39 38 37 38 39 40 39 38 35 33 36 39 38 35 33 31 29 29
44 46 47 49 51 53 54 54 54 53 51 49 48 46 44 43 42 41 41 40 39 39 38 37 38 39 39 39 37 34 33 35 37 36 35 33 30 27
46 48 49 51 53 54 55 55 54 52 50 48 46 44 43 42 42 41 40 40 39 39 38 37 37 37 38 38 36 34 34 33 33 33 34 36 34 30
Wind_Direction
270 267 266 265 264 264 263 264 266 267 269 269 272 274 276 277 280 280 280 281 281 282 282 282 282 283 282 282 281 280 279 278 277 277 276 276 274 273
270 267 264 262 261 261 261 261 262 264 267 268 271 275 276 278 279 279 281 282 283 284 283 283 283 283 283 282 282 281 280 279 278 278 277 276 276 274
272 267 264 261 259 259 259 259 260 262 265 268 271 273 274 277 279 280 282 283 283 284 283 284 284 284 284 284 283 282 281 280 279 279 278 278 277 276
274 269 265 261 258 257 257 257 259 261 264 266 269 272 274 277 279 282 282 282 283 283 284 284 285 285 285 285 283 282 282 281 281 280 279 279 278 277
277 270 265 261 258 257 256 256 258 261 264 267 270 273 275 277 279 280 282 283 284 284 284 285 286 286 285 285 285 284 283 283 282 282 281 280 279 278
280 273 267 261 258 256 256 257 259 262 266 268 271 273 276 277 279 280 282 283 285 286 287 288 289 288 287 287 286 285 285 284 284 283 282 281 280 279
285 278 272 265 260 258 257 258 261 263 266 268 271 275 277 279 280 282 284 286 288 288 289 290 290 289 289 288 288 287 286 285 284 284 283 281 280 278
290 284 276 270 267 262 260 261 263 266 268 271 274 278 280 283 284 286 287 288 289 289 290 291 291 291 290 290 289 288 288 287 286 285 283 282 279 277
298 290 282 277 272 267 266 267 270 273 275 277 280 282 285 286 287 288 289 291 291 292 292 293 293 293 292 291 290 289 289 288 287 286 285 282 280 277
310 302 295 288 282 279 278 277 278 280 281 282 284 287 289 290 291 292 293 294 294 294 294 294 294 294 293 292 291 291 290 290 289 287 285 282 280 278
319 312 305 296 292 290 289 288 288 289 289 289 291 293 294 295 295 295 295 295 295 295 295 295 294 294 294 293 293 292 292 291 290 289 286 283 282 280
320 316 311 307 303 300 298 296 295 295 295 295 296 297 298 298 298 297 297 297 296 296 296 296 295 294 293 293 293 294 293 293 292 291 288 286 284 282
319 316 313 310 306 304 302 301 300 299 299 300 300 300 301 300 299 299 299 298 298 297 297 296 295 294 293 291 291 292 293 293 293 292 291 289 287 284
315 313 312 310 308 306 305 304 303 303 303 303 303 303 302 301 301 301 301 301 300 299 298 297 295 294 293 291 290 291 292 292 292 291 290 289 288 286
314 313 311 310 309 308 307 307 306 306 306 306 305 304 304 303 302 302 302 302 301 300 298 297 295 294 293 292 291 291 290 291 293 292 291 289 287 286
313 312 312 311 311 310 309 309 309 309 308 307 306 305 304 303 303 303 302 301 301 300 299 297 296 296 295 294 294 293 292 292 292 292 292 289 287 286
313 313 312 312 312 312 311 311 311 310 309 308 307 306 305 304 303 303 302 301 300 299 298 297 296 296 296 296 295 295 294 294 294 293 291 289 287 286
314 313 313 313 313 313 312 312 312 311 310 309 308 307 306 304 303 303 301 300 299 298 297 296 295 295 296 297 298 297 296 295 295 295 294 291 288 287
314 314 314 314 314 314 314 313 313 312 312 310 309 307 306 304 303 302 301 299 298 297 296 295 295 295 295 294 296 296 295 294 295 295 294 292 291 288
315 315 315 314 314 315 315 315 314 313 312 311 309 307 306 304 302 301 300 298 297 296 295 295 295 295 296 295 295 294 295 295 295 295 293 292 292 289
315 315 315 315 316 316 316 316 315 314 313 311 309 307 306 304 302 301 300 299 297 296 295 295 295 296 296 296 296 295 294 295 297 297 294 291 289 288
316 316 317 317 317 317 317 317 316 315 313 312 310 308 306 304 302 301 300 299 298 297 296 295 295 295 296 297 298 296 293 293 295 297 296 294 292 289
317 318 318 318 319 318 318 318 317 315 314 312 310 309 307 305 303 302 301 299 298 297 296 295 295 295 297 298 298 298 296 293 293 293 293 293 294 293
Height
5678 5677 5677 5680 5681 5683 5685 5687 5688 5690 5692 5692 5693 5693 5692 5692 5691 5690 5689 5688 5686 5684 5682 5681 5679 5678 5676 5674 5673 5671 5670 5668 5667 5666 5665 5664 5663 5662
5658 5658 5659 5661 5664 5666 5668 5671 5673 5675 5676 5678 5678 5678 5677 5677 5676 5676 5674 5672 5671 5669 5666 5664 5662 5661 5659 5657 5655 5653 5651 5649 5648 5646 5645 5643 5642 5641
5639 5640 5642 5644 5647 5650 5652 5655 5658 5660 5662 5663 5663 5664 5663 5662 5662 5660 5659 5657 5655 5652 5650 5647 5645 5643 5640 5638 5635 5633 5631 5629 5628 5626 5623 5622 5620 5618
5623 5623 5625 5627 5630 5634 5637 5640 5643 5646 5648 5649 5650 5649 5649 5648 5647 5645 5643 5640 5638 5635 5632 5630 5627 5624 5622 5619 5616 5614 5611 5609 5607 5604 5602 5600 5597 5594
5610 5610 5611 5613 5616 5620 5623 5627 5630 5632 5634 5636 5636 5636 5634 5633 5631 5629 5627 5624 5621 5618 5615 5612 5609 5606 5602 5599 5596 5593 5591 5588 5585 5582 5579 5575 5572 5569
5600 5600 5600 5602 5605 5608 5612 5615 5618 5621 5622 5623 5623 5622 5620 5619 5617 5614 5611 5608 5604 5601 5597 5594 5590 5586 5582 5579 5575 5572 5569 5566 5562 5559 5555 5551 5547 5543
5593 5592 5592 5594 5596 5599 5602 5605 5608 5609 5610 5611 5610 5609 5607 5605 5602 5599 5596 5591 5587 5584 5580 5575 5571 5567 5561 5557 5553 5550 5547 5543 5539 5535 5531 5527 5523 5519
5589 5588 5587 5588 5590 5592 5595 5596 5598 5599 5600 5600 5599 5597 5594 5592 5588 5585 5581 5577 5572 5567 5563 5557 5552 5547 5541 5536 5531 5527 5524 5520 5516 5512 5508 5503 5499 5496
5586 5585 5585 5585 5586 5587 5588 5589 5590 5590 5590 5589 5587 5585 5582 5579 5575 5571 5566 5560 5555 5549 5546 5539 5532 5527 5520 5514 5510 5506 5502 5498 5495 5491 5486 5482 5478 5475
5585 5584 5583 5582 5582 5583 5583 5583 5582 5582 5581 5579 5576 5573 5569 5565 5560 5555 5550 5544 5537 5531 5528 5523 5515 5509 5502 5494 5489 5486 5482 5479 5475 5471 5467 5464 5461 5459
5584 5582 5581 5580 5579 5578 5578 5577 5575 5573 5571 5568 5564 5560 5556 5551 5545 5539 5533 5528 5521 5514 5509 5506 5499 5493 5486 5478 5472 5468 5464 5461 5458 5455 5452 5449 5446 5444
5583 5580 5578 5576 5574 5573 5571 5569 5567 5564 5561 5557 5552 5547 5541 5535 5529 5524 5517 5511 5504 5497 5491 5488 5482 5477 5473 5465 5458 5453 5449 5446 5443 5440 5437 5434 5432 5430
5580 5577 5574 5572 5569 5567 5564 5561 5558 5554 5549 5544 5539 5533 5527 5520 5514 5507 5501 5494 5487 5480 5475 5471 5466 5460 5457 5454 5447 5441 5437 5433 5430 5427 5423 5421 5418 5416
5576 5572 5569 5566 5563 5559 5555 5551 5547 5542 5537 5531 5525 5518 5512 5505 5498 5491 5484 5478 5471 5465 5459 5455 5452 5447 5444 5440 5436 5431 5426 5422 5419 5416 5412 5409 5405 5403
5570 5566 5563 5559 5555 5550 5546 5541 5536 5530 5524 5517 5510 5503 5496 5489 5482 5476 5469 5463 5456 5450 5445 5441 5438 5434 5431 5427 5425 5420 5416 5412 5407 5405 5401 5398 5394 5391
5564 5559 5555 5550 5546 5541 5535 5530 5524 5517 5510 5503 5495 5488 5481 5474 5467 5461 5455 5449 5444 5437 5432 5428 5424 5421 5418 5415 5412 5408 5404 5401 5398 5394 5391 5387 5382 5379
5556 5551 5547 5542 5536 5530 5524 5518 5511 5504 5496 5488 5481 5473 5466 5459 5453 5447 5442 5436 5432 5426 5421 5416 5412 5409 5406 5403 5400 5396 5392 5389 5385 5382 5379 5377 5372 5368
5548 5543 5538 5532 5526 5520 5513 5506 5499 5491 5483 5475 5467 5459 5452 5446 5439 5434 5428 5424 5419 5415 5410 5405 5401 5398 5396 5392 5387 5383 5380 5377 5374 5370 5366 5365 5362 5357
5539 5534 5528 5522 5516 5509 5501 5494 5486 5477 5469 5461 5453 5446 5439 5433 5426 5421 5415 5411 5407 5403 5398 5393 5389 5386 5384 5383 5379 5372 5367 5365 5362 5359 5355 5352 5350 5347
5530 5524 5518 5511 5504 5497 5489 5481 5472 5464 5456 5448 5440 5433 5426 5419 5413 5408 5403 5398 5394 5391 5387 5382 5377 5374 5371 5369 5368 5364 5355 5351 5349 5347 5344 5341 5338 5336
5520 5514 5507 5500 5492 5484 5476 5468 5459 5451 5442 5434 5426 5419 5412 5406 5400 5395 5390 5386 5381 5378 5375 5370 5365 5361 5358 5355 5355 5353 5346 5339 5335 5334 5332 5329 5328 5325
5510 5503 5496 5488 5480 5472 5463 5454 5445 5437 5428 5420 5413 5406 5399 5393 5388 5382 5377 5373 5369 5365 5361 5358 5354 5349 5345 5342 5340 5339 5336 5330 5325 5321 5318 5315 5314 5314
5500 5492 5484 5477 5468 5459 5450 5441 5432 5423 5415 5407 5400 5393 5386 5380 5375 5370 5365 5360 5356 5352 5348 5345 5342 5338 5334 5330 5327 5325 5323 5319 5316 5313 5309 5303 5301 5301